Location: Laupheim
(48.2265°N, 9.8829°E)
Time: 06:55:53
(UTC+01:00)

Tiangong 1 - Visible Passes

Search period start: 25 November 2017 00:00
Search period end: 05 December 2017 00:00
Orbit: 283 x 307 km, 42.8° (Epoch: 24 November)

Date Brightness Start Highest point End Pass type
(mag) Time Alt. Az. Time Alt. Az. Time Alt. Az.
27 Nov 3.0 18:00:22 10° SSW 18:01:42 13° SSE 18:02:12 13° SSE visible
28 Nov 2.7 18:05:41 10° SSW 18:07:33 18° SSE 18:07:57 17° SSE visible
29 Nov 2.4 18:11:11 10° SW 18:13:17 22° S 18:13:34 21° SSE visible
30 Nov 2.3 18:16:44 10° SW 18:18:55 24° S 18:19:03 23° S visible
01 Dec 2.5 18:22:16 10° WSW 18:24:24 23° S 18:24:27 23° S visible
02 Dec 2.8 18:27:45 10° WSW 18:29:44 20° S 18:29:44 20° S visible
03 Dec 3.2 18:33:15 10° WSW 18:34:54 15° SSW 18:35:00 15° SSW visible
04 Dec 2.8 17:03:39 10° WSW 17:05:47 22° S 17:07:54 10° SE visible
04 Dec 3.7 18:39:10 10° SW 18:39:53 11° SSW 18:40:13 11° SSW visible
